Regional Weather Roundup
Issued by NWS Albany, NY

Home | Current Version | Previous Version | Text Only | Print | Product List | Glossary On
Versions: 1 2 3 4 5 6 7 8 9 10 11 12 13 14 15 16 17 18 19 20 21 22 23 24 25 26 27 28 29 30 31 32 33 34 35 36 37 38 39 40 41 42 43 44 45 46 47 48 49 50
000
ASUS41 KALY 211510
RWRALY

NEW YORK STATE HOURLY WEATHER ROUNDUP
NATIONAL WEATHER SERVICE ALBANY NY
1000 AM EST SUN DEC 21 2014

NOTE: "FAIR" INDICATES FEW OR NO CLOUDS BELOW 12,000 FEET WITH NO
SIGNIFICANT WEATHER AND/OR NO OBSTRUCTIONS TO VISIBILITY.

NYZ032-033-038>043-046>054-057>066-NYZ062>081-211600-
EAST


CITY           SKY/WX    TMP DP  RH WIND       PRES   REMARKS
ALBANY         LGT SNOW  28  23  81 NW6       30.36R FOG     WCI  22
GLENS FALLS    LGT SNOW  24  21  88 CALM      30.36R FOG
POUGHKEEPSIE   CLOUDY    31  25  78 N6        30.33R WCI  25
NEWBURGH       CLOUDY    28  27  93 VRB5      30.33R WCI  23
MONTGOMERY     CLOUDY    30  26  85 N6        30.32R WCI  24
WHITE PLAINS   LGT SNOW  31  25  78 NW6       30.29R WCI  25
ISLIP          CLOUDY    34  28  79 W7        30.28S WCI  28
NEW YORK CITY  CLOUDY    33  27  78 N6        30.32R WCI  28
CENTRAL PARK   CLOUDY    32  25  75 VRB5      30.34R WCI  27
$$

NYZ005>009-017-018-044>046-055-056-211600-
CENTRAL


CITY           SKY/WX    TMP DP  RH WIND       PRES   REMARKS
FULTON         CLOUDY    29  23  78 S3        30.33R
SYRACUSE       FLURRIES  29  25  85 CALM      30.34R
ROME           CLOUDY    28  22  78 E3        30.36R
ELMIRA         CLOUDY    30  23  75 SW7       30.31R WCI  23
BINGHAMTON     CLOUDY    26  19  74 CALM      30.26R
MONTICELLO     CLOUDY    27  25  93 NW6       30.28R WCI  20
$$

NYZ026>034-041>043-211600-
NORTH


CITY           SKY/WX    TMP DP  RH WIND       PRES   REMARKS
WATERTOWN      CLOUDY    29  21  72 NE3       30.34R
FORT DRUM      NOT AVBL
MASSENA        CLOUDY    17  14  88 E3        30.39R FOG
SARANAC LAKE   CLOUDY    20  17  88 CALM      30.24R
PLATTSBURGH    CLOUDY    19  17  92 N3        30.38S FOG
$$

NYZ001>004-010>016-019>021-211600-
WEST


CITY           SKY/WX    TMP DP  RH WIND       PRES   REMARKS
NIAGARA FALLS  MOSUNNY   30  24  78 W7        30.32R WCI  23
BUFFALO        PTSUNNY   30  22  72 W3        30.32R
DUNKIRK        CLOUDY    32  23  69 W5        30.32S WCI  27
JAMESTOWN      CLOUDY    27  21  80 SW3       30.27R
WELLSVILLE     CLOUDY    26  22  84 W5        30.25S WCI  20
ROCHESTER      PTSUNNY   30  24  78 W6        30.33R WCI  24
PENN YAN       MOSUNNY   30  22  72 SW3       30.31R
$$

             KEY
       WCI = WIND CHILL INDEX
       VSB = VISIBILITY
       HX  = HEAT INDEX
$$


USA.gov is the U.S. government's official web portal to all federal, state and local government web resources and services.